San Diego, CA

3:12 PM PDT on August 27, 2016 (GMT -0700)
North Island Naval Air Station

Weather History for KNZY - February, 2013

Change the Weather History Date:

Friday, February 8, 2013

  Actual Average Record
Temperature  
Mean Temperature 54 °F -  
Max Temperature 57 °F 61 °F 80 °F (2016)
Min Temperature 48 °F 48 °F 32 °F (2012)
Degree Days  
Heating Degree Days 11    
Growing Degree Days 4 (Base 50)    
Moisture  
Dew Point 41 °F    
Average Humidity 62    
Maximum Humidity 72    
Minimum Humidity 47    
Precipitation  
Precipitation 0.09 in - - ()
Sea Level Pressure  
Sea Level Pressure 29.98 in    
Wind  
Wind Speed 11 mph (West)    
Max Wind Speed 20 mph    
Max Gust Speed 28 mph    
Visibility 9 miles    
Events Rain    
Averages and records for this station are not official NWS values.
T = Trace of Precipitation, MM = Missing Value Source: NWS Daily Summary

Daily Weather History Graph

Daily Weather History Graph

Search for Another Location

Airport or City:

Trip Planner

Search our weather history database for the weather conditions in past years. The results will help you decide how hot, cold, wet, or windy it might be!

Date:

Astronomy

Feb. 08, 2013 Rise Set
Actual Time 6:37 AM PST 5:28 PM PST
Civil Twilight 6:12 AM PST 5:53 PM PST
Nautical Twilight 5:43 AM PST 6:23 PM PST
Astronomical Twilight 5:14 AM PST 6:51 PM PST
Moon 5:07 AM PST (2/8) 4:08 PM PST (2/8)
Length of Visible Light 11h 41m
Length of Day
10h 50m
Waning Crescent, 3% of the Moon is Illuminated
Feb 8
Waning Crescent
Feb 9
New
Feb 17
First Quarter
Feb 25
Full
Mar 4
Last Quarter

Hourly Weather History & Observations

Time (PST) Temp. Dew Point Humidity Pressure Visibility Wind Dir Wind Speed Gust Speed Precip Events Conditions
12:52 AM 55.9 °F 44.1 °F 64% 30.04 in 10.0 mi West 8.1 mph - N/A   Mostly Cloudy
1:52 AM 55.9 °F 44.1 °F 64% 30.04 in 10.0 mi West 8.1 mph - N/A   Mostly Cloudy
2:52 AM 55.9 °F 45.0 °F 67% 30.03 in 10.0 mi West 9.2 mph - N/A   Mostly Cloudy
3:52 AM 55.9 °F 42.1 °F 60% 30.03 in 10.0 mi West 10.4 mph - N/A   Mostly Cloudy
4:52 AM 55.9 °F 39.0 °F 53% 30.03 in 10.0 mi West 11.5 mph - N/A   Mostly Cloudy
5:00 AM - - N/A% - - North - - N/A   Unknown
5:52 AM 55.0 °F 35.1 °F 47% 30.03 in 10.0 mi West 13.8 mph - N/A   Mostly Cloudy
6:52 AM 55.0 °F 37.9 °F 53% 30.04 in 10.0 mi West 11.5 mph - N/A   Mostly Cloudy
7:52 AM 57.0 °F 39.0 °F 51% 30.04 in 10.0 mi West 8.1 mph - N/A   Mostly Cloudy
8:44 AM 55.4 °F 39.2 °F 54% 30.05 in 7.0 mi West 13.8 mph 27.6 mph 0.00 in Rain Light Rain
8:52 AM 53.1 °F 41.0 °F 64% 30.05 in 7.0 mi West 15.0 mph 25.3 mph 0.00 in Rain Light Rain
9:02 AM 51.8 °F 42.8 °F 71% 30.05 in 7.0 mi WSW 5.8 mph - 0.00 in   Mostly Cloudy
9:52 AM 55.9 °F 43.0 °F 62% 30.04 in 9.0 mi WSW 8.1 mph - 0.00 in   Mostly Cloudy
10:52 AM 57.9 °F 44.1 °F 60% 30.03 in 10.0 mi SW 11.5 mph 21.9 mph N/A   Mostly Cloudy
10:55 AM 57.2 °F 42.8 °F 59% 30.03 in 7.0 mi NW 19.6 mph 24.2 mph 0.00 in Rain Light Rain
11:13 AM 55.4 °F 42.8 °F 63% 30.03 in 7.0 mi WNW 8.1 mph - 0.00 in   Mostly Cloudy
11:21 AM 53.6 °F 42.8 °F 67% 30.03 in 7.0 mi West 9.2 mph - 0.00 in Rain Light Rain
11:52 AM 54.0 °F 44.1 °F 69% 30.01 in 7.0 mi WSW 8.1 mph - 0.03 in   Overcast
12:52 PM 57.0 °F 45.0 °F 64% 29.98 in 9.0 mi SSW 11.5 mph - N/A   Overcast
1:02 PM 55.4 °F 42.8 °F 63% 29.98 in 7.0 mi West 19.6 mph 25.3 mph 0.00 in Rain Light Rain
1:15 PM 55.4 °F 46.4 °F 72% 29.99 in 9.0 mi WSW 16.1 mph - 0.00 in Rain Light Rain
1:34 PM 53.6 °F 44.6 °F 72% 29.98 in 8.0 mi SW 9.2 mph - 0.06 in   Mostly Cloudy
1:52 PM 55.0 °F 44.1 °F 67% 29.97 in 9.0 mi WSW 9.2 mph - 0.06 in   Mostly Cloudy
1:58 PM 55.4 °F 44.6 °F 67% 29.96 in 8.0 mi WSW 8.1 mph - 0.00 in Rain Light Rain
2:17 PM 55.4 °F 42.8 °F 63% 29.95 in 9.0 mi WSW 13.8 mph 19.6 mph 0.00 in   Overcast
2:52 PM 55.9 °F 41.0 °F 57% 29.95 in 10.0 mi West 16.1 mph 21.9 mph 0.00 in   Mostly Cloudy
3:52 PM 55.0 °F 41.0 °F 59% 29.94 in 10.0 mi West 11.5 mph - N/A   Mostly Cloudy
4:52 PM 54.0 °F 39.9 °F 59% 29.93 in 10.0 mi West 15.0 mph - N/A   Mostly Cloudy
5:29 PM 53.6 °F 39.2 °F 58% 29.92 in 9.0 mi West 13.8 mph - 0.00 in Rain Light Rain
5:52 PM 52.0 °F 39.9 °F 63% 29.93 in 9.0 mi NW 19.6 mph 24.2 mph 0.00 in Rain Light Rain
6:27 PM 51.8 °F 41.0 °F 67% 29.93 in 10.0 mi NW 11.5 mph - 0.00 in   Overcast
6:52 PM 52.0 °F 42.1 °F 69% 29.93 in 10.0 mi West 10.4 mph - 0.00 in   Mostly Cloudy
7:15 PM 51.8 °F 39.2 °F 62% 29.93 in 9.0 mi West 8.1 mph - 0.00 in Rain Light Rain
7:43 PM 51.8 °F 39.2 °F 62% 29.93 in 10.0 mi West 13.8 mph - 0.00 in   Mostly Cloudy
7:52 PM 52.0 °F 39.0 °F 61% 29.93 in 10.0 mi West 13.8 mph - 0.00 in   Mostly Cloudy
8:14 PM 51.8 °F 39.2 °F 62% 29.93 in 9.0 mi NW 15.0 mph 25.3 mph 0.00 in Rain Light Rain
8:42 PM 51.8 °F 39.2 °F 62% 29.94 in 10.0 mi West 13.8 mph - 0.00 in   Mostly Cloudy
8:52 PM 52.0 °F 39.0 °F 61% 29.94 in 10.0 mi West 15.0 mph 21.9 mph 0.00 in   Mostly Cloudy
9:52 PM 51.1 °F 39.0 °F 63% 29.94 in 10.0 mi West 9.2 mph - N/A   Scattered Clouds
10:47 PM 53.6 °F 39.2 °F 58% 29.94 in 10.0 mi West 16.1 mph 21.9 mph 0.00 in Rain Light Rain
10:52 PM 53.1 °F 39.0 °F 59% 29.94 in 10.0 mi WNW 17.3 mph 23.0 mph 0.00 in Rain Light Rain
11:52 PM 48.9 °F 39.9 °F 71% 29.95 in 10.0 mi West 3.5 mph - 0.00 in Rain Light Rain